Weather History for Valley City, ND

Change the Weather History Date:

Thursday, January 10, 2013

  Actual Average (KJMS) Record (KJMS)
Temperature  
Mean Temperature 32 °F 10 °F  
Max Temperature 41 °F 20 °F 54 °F (1990)
Min Temperature 23 °F 0 °F -31 °F (1905)
Degree Days  
Heating Degree Days 33 55  
Month to date heating degree days 548  
Since 1 July heating degree days 4208  
Cooling Degree Days 0 0  
Month to date cooling degree days 0  
Year to date cooling degree days 0  
Moisture  
Dew Point 29 °F    
Average Humidity 79    
Maximum Humidity 100    
Minimum Humidity 57    
Precipitation  
Precipitation 0.56 in 0.02 in 0.25 in (1976)
Month to date precipitation 0.16  
Year to date precipitation 0.16  
Sea Level Pressure  
Sea Level Pressure 29.69 in    
Wind  
Wind Speed 21 mph (South)    
Max Wind Speed 37 mph    
Max Gust Speed 48 mph    
Visibility 9 miles    
Events Rain , Snow    
T = Trace of Precipitation, MM = Missing Value Source: NWS Daily Summary

Daily Weather History Graph

Daily Weather History Graph

Search for Another Location

Airport:

Trip Planner

Search our weather history database for the weather conditions in past years. The results will help you decide how hot, cold, wet, or windy it might be!

Date:

Astronomy

Jan. 10, 2013 Rise Set
Actual Time 8:15 AM CST 5:04 PM CST
Civil Twilight 7:41 AM CST 5:38 PM CST
Nautical Twilight 7:03 AM CST 6:16 PM CST
Astronomical Twilight 6:26 AM CST 6:53 PM CST
Moon 6:56 AM CST (1/10) 4:14 PM CST (1/10)
Length of Visible Light 9h 57m
Length of Day
8h 48m
Waning Crescent, 2% of the Moon is Illuminated
Jan 10
Waning Crescent
Jan 11
New
Jan 18
First Quarter
Jan 26
Full
Feb 3
Last Quarter

Hourly Weather History & Observations

Time (CST) Temp. Windchill Dew Point Humidity Pressure Visibility Wind Dir Wind Speed Gust Speed Precip Events Conditions
12:15 AM 23.0 °F 11.1 °F 21.2 °F 93% 29.94 in 10.0 mi South 12.7 mph - N/A   Clear
12:35 AM 24.8 °F 13.4 °F 23.0 °F 93% 29.93 in 10.0 mi South 12.7 mph - N/A   Clear
12:55 AM 24.8 °F 12.4 °F 23.0 °F 93% 29.92 in 10.0 mi South 15.0 mph - N/A   Clear
2:35 AM 26.6 °F 14.3 °F 24.8 °F 93% 29.87 in 10.0 mi South 16.1 mph - N/A   Clear
2:55 AM 30.2 °F 18.5 °F 26.6 °F 86% 29.87 in 10.0 mi South 17.3 mph - N/A   Clear
3:15 AM 32.0 °F 19.8 °F 28.4 °F 87% 29.86 in 10.0 mi South 20.7 mph 27.6 mph N/A   Clear
3:35 AM 32.0 °F 20.1 °F 28.4 °F 87% 29.85 in 10.0 mi South 19.6 mph - N/A   Clear
3:55 AM 32.0 °F 20.1 °F 28.4 °F 87% 29.84 in 10.0 mi South 19.6 mph 25.3 mph N/A   Clear
4:15 AM 33.8 °F 22.2 °F 28.4 °F 81% 29.83 in 10.0 mi South 20.7 mph 27.6 mph N/A   Clear
4:35 AM 33.8 °F 22.5 °F 28.4 °F 81% 29.82 in 10.0 mi South 19.6 mph - N/A   Clear
4:55 AM 33.8 °F 21.3 °F 28.4 °F 81% 29.81 in 10.0 mi South 24.2 mph 28.8 mph N/A   Clear
5:15 AM 35.6 °F 23.7 °F 28.4 °F 75% 29.80 in 10.0 mi South 24.2 mph 27.6 mph N/A Snow Light Snow
5:35 AM 35.6 °F 24.0 °F 28.4 °F 75% 29.79 in 10.0 mi SSW 23.0 mph 33.4 mph N/A Snow Light Snow
5:55 AM 35.6 °F 23.4 °F 28.4 °F 75% 29.78 in 10.0 mi SSW 25.3 mph 31.1 mph 0.02 in Snow Light Snow
6:15 AM 35.6 °F 22.7 °F 28.4 °F 75% 29.78 in 10.0 mi SSW 28.8 mph 36.8 mph 0.01 in Snow Light Snow
6:35 AM 35.6 °F 23.0 °F 28.4 °F 75% 29.77 in 10.0 mi SSW 27.6 mph 33.4 mph 0.03 in Snow Light Snow
6:55 AM 35.6 °F 22.1 °F 28.4 °F 75% 29.77 in 10.0 mi SSW 32.2 mph 41.4 mph 0.05 in Snow Light Snow
7:15 AM 35.6 °F 22.5 °F 28.4 °F 75% 29.77 in 10.0 mi SSW 29.9 mph 39.1 mph 0.01 in Snow Light Snow
7:55 AM 35.6 °F 22.7 °F 28.4 °F 75% 29.77 in 10.0 mi SSW 28.8 mph 35.7 mph 0.06 in Snow Light Snow
8:15 AM 35.6 °F 22.7 °F 28.4 °F 75% 29.76 in 10.0 mi SSW 28.8 mph 39.1 mph 0.01 in Snow Light Snow
8:35 AM 35.6 °F 22.5 °F 28.4 °F 75% 29.76 in 10.0 mi SSW 29.9 mph 40.3 mph 0.04 in Snow Light Snow
8:55 AM 35.6 °F 21.9 °F 28.4 °F 75% 29.76 in 10.0 mi SSW 33.4 mph 41.4 mph 0.07 in Snow Light Snow
9:15 AM 35.6 °F 23.2 °F 28.4 °F 75% 29.76 in 10.0 mi SSW 26.5 mph 36.8 mph 0.01 in Snow Light Snow
9:35 AM 37.4 °F 25.4 °F 28.4 °F 70% 29.76 in 10.0 mi SSW 27.6 mph 35.7 mph 0.03 in Snow Light Snow
9:55 AM 37.4 °F 23.8 °F 26.6 °F 65% 29.76 in 10.0 mi SSW 36.8 mph 48.3 mph 0.05 in Snow Light Snow
10:15 AM 37.4 °F 25.0 °F 26.6 °F 65% 29.76 in 10.0 mi SSW 29.9 mph 41.4 mph 0.02 in Snow Light Snow
10:35 AM 39.2 °F 26.8 °F 26.6 °F 61% 29.76 in 10.0 mi SSW 33.4 mph 41.4 mph 0.05 in   Clear
10:55 AM 39.2 °F 27.2 °F 26.6 °F 61% 29.75 in 10.0 mi SSW 31.1 mph 47.2 mph 0.10 in   Clear
11:15 AM 39.2 °F 26.6 °F 26.6 °F 61% 29.74 in 10.0 mi SSW 34.5 mph 46.0 mph 0.02 in   Clear
11:35 AM 39.2 °F 28.5 °F 26.6 °F 61% 29.74 in 10.0 mi SSW 24.2 mph 35.7 mph 0.05 in   Clear
11:55 AM 39.2 °F 27.6 °F 26.6 °F 61% 29.72 in 10.0 mi SSW 28.8 mph 40.3 mph 0.08 in   Clear
12:15 PM 39.2 °F 27.0 °F 26.6 °F 61% 29.70 in 10.0 mi SSW 32.2 mph 41.4 mph 0.02 in   Clear
12:35 PM 39.2 °F 27.4 °F 26.6 °F 61% 29.68 in 10.0 mi SSW 29.9 mph 43.7 mph 0.05 in   Clear
12:55 PM 39.2 °F 28.3 °F 26.6 °F 61% 29.68 in 10.0 mi SSW 25.3 mph 39.1 mph 0.07 in   Clear
1:15 PM 39.2 °F 27.8 °F 26.6 °F 61% 29.67 in 10.0 mi SSW 27.6 mph 38.0 mph 0.01 in   Clear
1:35 PM 41.0 °F 30.5 °F 26.6 °F 57% 29.67 in 10.0 mi South 26.5 mph 42.6 mph 0.02 in   Clear
1:55 PM 41.0 °F 30.2 °F 26.6 °F 57% 29.67 in 10.0 mi South 27.6 mph 35.7 mph 0.03 in   Clear
2:15 PM 41.0 °F 29.8 °F 26.6 °F 57% 29.64 in 10.0 mi South 29.9 mph 36.8 mph N/A   Clear
2:35 PM 41.0 °F 30.5 °F 26.6 °F 57% 29.63 in 10.0 mi South 26.5 mph 38.0 mph 0.02 in   Clear
2:55 PM 39.2 °F 27.8 °F 26.6 °F 61% 29.63 in 10.0 mi South 27.6 mph 34.5 mph 0.02 in   Clear
3:15 PM 39.2 °F 29.0 °F 26.6 °F 61% 29.64 in 10.0 mi South 21.9 mph 33.4 mph N/A   Clear
3:35 PM 39.2 °F 28.3 °F 26.6 °F 61% 29.63 in 10.0 mi South 25.3 mph 34.5 mph 0.01 in   Clear
3:55 PM 39.2 °F 28.7 °F 26.6 °F 61% 29.63 in 10.0 mi South 23.0 mph 32.2 mph 0.01 in   Clear
4:15 PM 39.2 °F 29.8 °F 28.4 °F 65% 29.63 in 10.0 mi South 18.4 mph 29.9 mph N/A   Clear
4:35 PM 37.4 °F 28.9 °F 28.4 °F 70% 29.63 in 10.0 mi South 13.8 mph 20.7 mph N/A   Clear
4:55 PM 37.4 °F 29.8 °F 28.4 °F 70% 29.62 in 10.0 mi SSE 11.5 mph 23.0 mph N/A   Clear
5:15 PM 37.4 °F 28.5 °F 28.4 °F 70% 29.61 in 10.0 mi South 15.0 mph 26.5 mph N/A   Clear
5:35 PM 37.4 °F 28.2 °F 28.4 °F 70% 29.61 in 10.0 mi SSE 16.1 mph 24.2 mph N/A   Clear
5:55 PM 37.4 °F 28.2 °F 32.0 °F 81% 29.60 in 10.0 mi SSE 16.1 mph - N/A   Clear
6:15 PM 35.6 °F 25.9 °F 32.0 °F 87% 29.58 in 10.0 mi SSE 16.1 mph 21.9 mph N/A   Mostly Cloudy
6:35 PM 35.6 °F 27.1 °F 35.6 °F 100% 29.58 in 10.0 mi SSE 12.7 mph - N/A   Overcast
6:55 PM 37.4 °F 29.3 °F 35.6 °F 93% 29.58 in 10.0 mi South 12.7 mph - N/A   Overcast
7:15 PM 35.6 °F 27.1 °F 35.6 °F 100% 29.57 in 10.0 mi SSE 12.7 mph 19.6 mph N/A   Overcast
7:35 PM 35.6 °F 27.5 °F 35.6 °F 100% 29.57 in 10.0 mi SSE 11.5 mph - N/A   Overcast
7:55 PM 35.6 °F 27.1 °F 33.8 °F 93% 29.56 in 10.0 mi SSE 12.7 mph - N/A   Overcast
8:15 PM 33.8 °F 24.8 °F 33.8 °F 100% 29.55 in 10.0 mi SSE 12.7 mph 20.7 mph N/A   Overcast
8:35 PM 33.8 °F 23.2 °F 33.8 °F 100% 29.55 in 5.0 mi SSE 17.3 mph 24.2 mph N/A Rain Light Rain
8:55 PM 32.0 °F 20.8 °F 32.0 °F 100% 29.54 in 9.0 mi SSE 17.3 mph 21.9 mph N/A Rain Light Rain
9:15 PM 32.0 °F 21.2 °F 32.0 °F 100% 29.54 in 2.5 mi South 16.1 mph - N/A Rain Light Rain
9:35 PM 32.0 °F 20.5 °F 32.0 °F 100% 29.52 in 1.8 mi SSE 18.4 mph - N/A Rain Light Rain
9:55 PM 32.0 °F 22.1 °F 32.0 °F 100% 29.53 in 1.2 mi South 13.8 mph - N/A Rain Light Rain
10:15 PM 32.0 °F 23.0 °F 32.0 °F 100% 29.51 in 1.2 mi SSE 11.5 mph 20.7 mph N/A Rain Light Rain
10:35 PM 32.0 °F 22.5 °F 32.0 °F 100% 29.50 in 2.0 mi SSE 12.7 mph 20.7 mph N/A   Overcast
10:55 PM 32.0 °F 21.6 °F 32.0 °F 100% 29.50 in 2.0 mi South 15.0 mph 18.4 mph N/A   Overcast
11:15 PM 32.0 °F 23.6 °F 32.0 °F 100% 29.50 in 2.5 mi South 10.4 mph - N/A   Overcast
11:35 PM 32.0 °F 23.0 °F 32.0 °F 100% 29.49 in 3.0 mi SSE 11.5 mph - N/A   Overcast
11:55 PM 32.0 °F 23.6 °F 32.0 °F 100% 29.49 in 2.5 mi South 10.4 mph - N/A   Overcast